Huvudsida
METAR-TAF:

METAR-TAF

Flygplatser :

Vilhelmina, Sverige

Vilhelmina flygplats

latitud: 64-34-44N, longitud: 016-50-00E, höjd: 347 m

Aktuellt väderrapport

Denna rapport gjordes för 35 minuter sedan, klockan 17:50 UTC
Vind 2 kt från syd/sydost
Temperatur 7°C
Fuktighet 61%
Tryck 1011 hPa
Sikt 10 km eller mer
Inga moln under 1 500 m eller inga cumulonimbus

METAR: ESNV 221750Z 15002KT CAVOK 07/M00 Q1011

Tid: 20:25 (18:25 UTC)


TAF: saknas

Aktuella väderrapporter och prognoser från 4000 flygplatser (METAR- och TAF-rapporter).

De tillgängliga stationerna syns som gula och röda prickar på kartan.

För musen över prickarna för att se namnen på stationerna.

Klicka sedan för att få väderrapporter och prognoser.

För att ändra kartan: Klicka på de gröna knapparna med ett svart kors på för att zooma in; den gröna knappen med ett streck på för att zooma ut; eller på de gröna pilarna för angränsande kartor.


METAR-TAF: